Location: Flagstaff
(18.0648°N, 63.0530°W)
Time: 15:52:29
(UTC+00:00)

Daily predictions for brighter satellites

Satellite Brightness Start Highest point End
(mag) Time Altitude Azimuth Time Altitude Azimuth Time Altitude Azimuth
ATLAS 5 CENTAUR R/B 1.0 21:51:47 10° W 21:54:20 77° S 22:01:14 10° ESE
Cosmos 304 Rocket 4.2 21:54:37 10° NNW 21:59:24 69° WSW 22:04:10 10° S
CZ-4C R/B 3.5 21:58:02 10° SE 22:00:24 14° ESE 22:02:52 10° ENE
STARLINK-80 3.4 21:59:00 10° SSW 22:02:46 73° SE 22:06:33 10° NE
Abrixas rocket 2.4 22:00:51 10° SW 22:03:48 60° NW 22:06:46 10° NE
YAOGAN 1 4.2 22:04:11 10° ESE 22:06:27 14° ENE 22:08:42 10° NE
Cosmos 1908 Rocket 3.9 22:05:45 10° NNE 22:09:51 40° E 22:13:54 10° SSE
Cosmos 1666 3.2 22:07:47 10° NNE 22:11:15 36° E 22:14:41 10° SSE
USA 267 3.9 22:06:24 10° ESE 22:12:01 32° NE 22:17:37 10° NNW
COSMO-SKYMED 1 2.7 22:08:57 10° N 22:13:17 77° WNW 22:17:35 10° SSW
ADEOS Rocket 4.5 22:11:28 10° ENE 22:13:49 13° E 22:16:13 10° SE
Okean 1-7 3.0 22:09:48 10° S 22:14:05 89° WSW 22:18:25 10° N
CZ-3B R/B 2.3 22:09:36 10° SW 22:14:13 54° SSE 22:21:29 12° ENE
USA 116 4.3 22:09:47 10° NNE 22:14:52 61° E 22:19:30 10° S
Centaur AC-116 1.5 22:15:38 10° WSW 22:17:56 85° SSE 22:19:31 17° ENE
FengYun 1-2 T 4.5 22:16:01 10° SE 22:21:10 44° ENE 22:26:20 10° N
STARLINK-48 3.4 22:19:57 10° SW 22:23:49 86° SE 22:27:07 14° NE
Cosmos 1428 Rocket 4.4 22:19:44 10° S 22:25:51 86° E 22:32:02 10° N
Cosmos 1943 4.4 22:22:03 10° SSE 22:26:21 23° ESE 22:29:00 16° ENE
ERBS 2.5 22:24:29 10° NW 22:27:49 71° WSW 22:31:09 10° SSE
ATLAS 3B R/B 3.8 22:21:31 10° NW 22:28:06 50° WSW 22:34:54 10° S
Gbstr 26 Del rocket 4.3 22:21:26 10° SSW 22:29:09 68° SE 22:34:41 15° NE
SL-8 R/B 3.6 22:29:21 10° NW 22:34:09 72° NE 22:38:57 10° SE
Cosmos 1743 3.6 22:31:27 11° NNE 22:34:35 28° E 22:37:56 10° SE
GPS 2-05 Rocket1 3.0 22:32:35 10° WSW 22:35:13 42° NNW 22:36:25 25° NNE
Cosmos 676 Rocket 3.9 22:31:42 10° S 22:36:52 79° ESE 22:42:02 10° NNE
NOSS 2 (A) 4.5 22:37:18 10° NNW 22:39:44 68° WSW 22:42:33 10° SSE
SL-16 R/B 3.8 22:35:35 10° SW 22:40:39 34° WNW 22:45:45 10° N
Cosmos 2278 Rocket 2.3 22:35:14 10° NNW 22:40:53 82° WSW 22:46:31 10° SSE
GOES 2 Rocket 4.4 22:33:09 10° WNW 22:42:16 80° NNE 22:47:59 16° ESE
YAOGAN 6 2.5 22:40:21 10° S 22:43:49 84° WSW 22:47:20 10° NNW
Cosmos 1553 Rocket 4.5 22:38:40 10° NNE 22:44:33 38° E 22:50:25 10° SSE
SWIFT 2.4 22:42:02 10° W 22:46:14 64° N 22:47:57 33° ENE
Cosmos 1954 Rocket 3.9 22:41:20 10° SSW 22:46:29 87° WNW 22:51:38 10° NNE
DMSP B5D1-3 4.5 22:41:38 10° NNE 22:46:46 89° ESE 22:51:51 10° SSW
Cosmos 2221 Rocket 3.5 22:42:27 10° S 22:46:58 85° E 22:51:27 10° N
Cosmos 1603 3.8 22:41:43 10° S 22:47:14 56° ESE 22:51:06 20° NNE
Meteor 1-19 Rocket 4.1 22:42:45 10° S 22:48:25 88° E 22:53:56 10° N
Cosmos 1939 Rocket 4.2 22:47:20 10° SE 22:49:20 23° ESE 22:49:20 23° ESE
CZ-3C R/B 2.7 22:48:23 10° W 22:52:02 85° N 23:01:32 23° E
STARLINK-37 4.5 22:50:15 10° S 22:53:46 30° ESE 22:53:57 30° ESE
Meteor 2-4 Rocket 3.8 22:49:38 10° S 22:55:28 61° E 23:00:26 14° NNE
IRIDIUM 103 4.4 22:52:22 10° SSE 22:57:25 52° E 23:00:36 22° NNE
STARLINK-64 4.5 22:54:04 10° S 22:57:39 31° SE 22:57:39 31° SE
Cosmos 921 Rocket 3.7 23:01:24 36° ESE 23:01:24 36° ESE 23:04:29 10° SSE
STARLINK-35 4.3 22:57:00 10° S 23:00:32 34° SE 23:00:32 34° SE
H-II Stage 2 3.5 22:58:34 10° WNW 23:01:09 27° NNW 23:01:09 27° NNW
Sich 1 Rocket 3.4 22:57:54 10° N 23:02:16 73° E 23:06:38 10° S
STARLINK-51 4.3 22:58:37 10° SSW 23:02:08 36° SE 23:02:08 36° SE
GPS 2-12 Rocket1 4.4 22:58:37 10° W 23:02:38 34° SSW 23:05:23 17° SE
STARLINK-30 4.2 23:00:14 10° SSW 23:03:44 38° SE 23:03:44 38° SE
Cosmos 1782 Rocket 3.7 23:00:01 10° N 23:04:19 71° W 23:08:37 10° S
Cosmos 1741 Rocket 4.3 23:00:22 10° S 23:05:23 45° E 23:06:03 43° E
Fermi 3.6 23:01:24 10° WSW 23:05:29 84° NNW 23:06:02 65° ENE
STARLINK-33 4.2 23:01:50 10° SSW 23:05:19 39° SE 23:05:19 39° SE
STARLINK-50 4.1 23:03:27 10° SSW 23:06:55 41° SE 23:06:55 41° SE
STARLINK 4.4 23:03:40 10° SSW 23:06:50 34° SE 23:06:50 34° SE
Okean 3 3.8 23:04:49 10° SSW 23:08:59 65° W 23:11:49 20° N
STARLINK-56 4.1 23:06:42 10° SSW 23:10:06 44° SSE 23:10:06 44° SSE
Starlink (trailer) 4.0 23:08:19 10° SSW 23:11:41 46° SSE 23:11:41 46° SSE
Cosmos 1655 Rocket 4.2 23:06:20 10° S 23:12:39 71° W 23:18:56 10° N
Centaur D-1AR AC-41 2.9 23:09:35 10° WNW 23:13:10 76° N 23:14:41 45° E
STARLINK-38 4.0 23:09:57 10° SSW 23:13:18 48° SSE 23:13:18 48° SSE
STARLINK-65 4.0 23:11:33 10° SSW 23:14:51 48° SSE 23:14:51 48° SSE
Cosmos 1417 Rocket 4.3 23:09:23 10° N 23:15:30 73° E 23:21:39 10° S
IRIDIUM 106 4.2 23:10:27 10° S 23:15:40 86° E 23:18:49 25° N
GEOS 3 Rocket 3.6 23:14:49 50° ENE 23:16:02 67° ESE 23:21:19 10° SSW
Atlas Centaur 2 3.0 23:08:30 10° WNW 23:16:41 87° NNE 23:21:25 31° ESE
GPS 2-18 Rocket1 3.4 23:13:23 10° W 23:17:06 61° SSW 23:17:06 61° SSW
STARLINK-26 3.9 23:16:27 10° SW 23:19:09 51° SW 23:19:09 51° SW
STARLINK-69 4.0 23:16:31 10° SSW 23:19:44 52° S 23:19:44 52° S
STARLINK-66 4.1 23:18:06 10° SSW 23:21:14 50° S 23:21:14 50° S
CSL-04 Rocket 4.0 23:19:49 10° S 23:25:02 64° WSW 23:30:15 10° NNW
Delta 128 3.9 23:20:36 10° W 23:25:03 56° NNW 23:25:03 56° NNW
Cosmos 1850 Rocket 3.8 23:20:21 10° S 23:25:33 83° ESE 23:26:06 71° NE
CZ-4 R/B 3.4 23:23:13 10° SSW 23:26:40 28° W 23:30:04 10° NW
ATLAS 3B CENTAUR R/B 4.0 23:19:21 10° SW 23:26:48 55° SE 23:32:38 37° E
STARLINK-70 4.2 23:23:02 10° SSW 23:26:02 48° SSW 23:26:02 48° SSW
SEDSat Delta rocket 4.0 23:20:53 10° SW 23:27:36 63° SSE 23:28:42 55° ESE
STARLINK-68 4.2 23:24:47 10° SW 23:27:49 50° SW 23:27:49 50° SW
Meteor 1-13 Rocket 4.2 23:23:06 10° S 23:28:53 86° W 23:30:47 44° N
Lacrosse 5 3.0 23:25:08 10° WSW 23:29:51 38° NW 23:31:24 31° NNW
STARLINK-58 4.4 23:26:21 10° SW 23:29:14 46° SW 23:29:14 46° SW
FUSE 4.0 23:25:52 10° WNW 23:30:50 66° NNW 23:30:50 66° NNW
STARLINK-62 4.4 23:28:03 10° SW 23:30:56 46° SW 23:30:56 46° SW
GPS 2-14 Rocket1 4.4 23:28:56 10° SW 23:31:10 26° SSW 23:31:10 26° SSW
Cosmos 1674 Rocket 4.1 23:33:00 10° SSW 23:36:49 57° SW 23:36:49 57° SW
Cosmos 2297 4.1 23:38:17 10° NNW 23:48:36 15° SSE 23:49:34 10° SSE
CZ-4C R/B 3.3 23:44:14 10° WSW 23:48:19 31° WNW 23:48:54 30° NW
